Home > Weather > Chelyabinsk > Past weeks

Flag for Russia Past Weather in Chelyabinsk, Russia — Yesterday and Last 2 Weeks

Now
63 °F

Scattered clouds.


Feels Like: 63 °F
Forecast: 59 / 73 °F
Wind: 8 mph from West

Location: Chelyabinsk-Balandino

Current Time: Jul 29, 2016 at 10:53:20 PM

Latest Report: Jul 29, 2016 at 10:00 PM


Visibility: N/A

Pressure: 29.77 "Hg

Humidity: 88%

Dew Point: 59 °F

Location of ChelyabinskLocation

Past Weather in Chelyabinsk — Graph

°F

Chelyabinsk Temperature Yesterday

Maximum temperature yesterday: 79 °F (at 12:30 PM)
Minimum temperature yesterday: 55 °F (at 2:00 AM)
Average temperature yesterday: 67 °F

High & Low Weather Summary for the Past Weeks

 TemperatureHumidityPressure
High81 °F (Jul 21, 3:30 PM)100% (Jul 16, 10:30 PM)30.04 "Hg (Jul 16, 10:30 PM)
Low48 °F (Jul 27, 3:30 AM)39% (Jul 21, 3:30 PM)29.50 "Hg (Jul 16, 10:00 PM)
Average67 °F75%29.83 "Hg
* Reported Jul 14 9:00 PM — Jul 29 9:30 PM, Chelyabinsk, Weather by CustomWeather, © 2016

Note: Actual official high and low records may vary slightly from our data, if they occured in-between our weather recording intervals... More about our weather records

Advertising

Chelyabinsk Weather History for the Previous 24 Hours

Scroll right to see more
 ConditionsComfort  
Time TempWeatherWind HumidityBarometerVisibility
9:30 PM
Fri, Jul 29
64 °FScattered clouds.10 mph88%29.77 "HgN/A
9:00 PM64 °FScattered clouds.6 mph88%29.77 "HgN/A
8:30 PM66 °FScattered clouds.6 mph83%29.74 "HgN/A
8:00 PM68 °FScattered clouds.6 mph78%29.74 "HgN/A
7:30 PM70 °FScattered clouds.6 mph73%29.74 "HgN/A
7:00 PM73 °FScattered clouds.10 mph65%29.74 "HgN/A
6:30 PM75 °FScattered clouds.10 mph65%29.74 "HgN/A
6:00 PM73 °FScattered clouds.8 mph65%29.74 "HgN/A
5:30 PM77 °FScattered clouds.8 mph54%29.74 "HgN/A
5:00 PM73 °FPartly sunny.8 mph65%29.74 "HgN/A
4:30 PM72 °FPartly sunny.8 mph73%29.74 "HgN/A
4:00 PM72 °FPartly sunny.8 mph73%29.74 "HgN/A
3:30 PM73 °FPartly sunny.10 mph65%29.74 "HgN/A
3:00 PM75 °FScattered clouds.8 mph61%29.74 "HgN/A
2:30 PM79 °FScattered clouds.8 mph54%29.74 "HgN/A
2:00 PM77 °FScattered clouds.6 mph54%29.74 "HgN/A
1:30 PM77 °FScattered clouds.6 mph57%29.77 "HgN/A
1:00 PM77 °FScattered clouds.6 mph57%29.77 "HgN/A
12:30 PM77 °FScattered clouds.6 mph57%29.77 "HgN/A
12:00 PM77 °FScattered clouds.6 mph57%29.77 "HgN/A
11:30 AM75 °FScattered clouds.6 mph61%29.80 "HgN/A
11:00 AM73 °FScattered clouds.6 mph65%29.80 "HgN/A
10:30 AM73 °FPassing clouds.6 mph69%29.80 "HgN/A
10:00 AM73 °FPassing clouds.6 mph65%29.80 "HgN/A
9:30 AM72 °FPassing clouds.6 mph73%29.80 "HgN/A
9:00 AM70 °FPassing clouds.3 mph78%29.80 "HgN/A
8:30 AM68 °FPassing clouds.3 mph83%29.80 "Hg4 mi
8:00 AM68 °FPassing clouds.3 mph78%29.80 "Hg4 mi
7:30 AM66 °FFog.3 mph88%29.80 "Hg3 mi
7:00 AM64 °FFog.3 mph88%29.80 "Hg3 mi
6:30 AM61 °FFog.3 mph100%29.80 "Hg3 mi
6:00 AM61 °FFog.6 mph94%29.80 "Hg3 mi
5:30 AM61 °FPassing clouds.6 mph94%29.80 "Hg4 mi
5:00 AM61 °FFog.6 mph94%29.80 "Hg2 mi
4:30 AM61 °FFog.6 mph94%29.80 "Hg2 mi
4:00 AM61 °FFog.6 mph94%29.80 "Hg3 mi
3:30 AM63 °FSprinkles. Fog.6 mph88%29.80 "Hg3 mi
3:00 AM61 °FFog.6 mph94%29.80 "Hg3 mi
2:30 AM63 °FFog.6 mph88%29.80 "Hg3 mi
2:00 AM61 °FFog.6 mph94%29.80 "Hg3 mi
1:30 AM61 °FFog.8 mph94%29.80 "Hg3 mi
1:00 AM61 °FFog.6 mph94%29.80 "Hg3 mi
12:30 AM59 °FFog.6 mph94%29.80 "Hg3 mi
12:00 AM61 °FPassing clouds.8 mph88%29.83 "Hg4 mi
11:30 PM
Thu, Jul 28
61 °FPassing clouds.8 mph94%29.83 "HgN/A
11:00 PM63 °FPassing clouds.6 mph88%29.83 "HgN/A
10:30 PM61 °FPassing clouds.6 mph88%29.83 "HgN/A
10:00 PM63 °FScattered clouds.6 mph83%29.83 "HgN/A
Weather by CustomWeather, © 2016

See weather overviewHow to use our weather pages